Trapani Birgi current weather conditions

sailwx.info

Wind from 030 at 4 knots

Air temperature 25.0° C
Dewpoint 22.0° C

Last reported at 2015-Jul-03 23:55 UTC.
Time now 2015-Jul-04 01:41 UTC

Location: N 37°55' E 012°29'.
View on Google Maps.

See reports from other nearby stations

  
Tides and Currents Weather Stations Pressure Air Temp Water Temp Dewpoint Dewpoint Depression Visibility Wind Speed Wind Dir Waves Ship Positions
date/time (UTC)wind fromknots sea level pressurealtimeterstation pressurevisibilityair tempwater tempwave heightnotes
2015-Jul-03 23:55 030 4 25.0
2015-Jul-03 22:55 26.0
2015-Jul-03 21:55 350 3 26.0
2015-Jul-03 20:55 26.0
2015-Jul-03 19:55 26.0
2015-Jul-03 18:55 010 6 26.0
2015-Jul-03 17:55 350 12 27.0
2015-Jul-03 16:55 350 15 27.0
2015-Jul-03 15:55 360 16 28.0
2015-Jul-03 14:55 360 18 28.0
2015-Jul-03 13:55 330 15 27.0
2015-Jul-03 12:55 340 15 28.0
2015-Jul-03 11:55 330 14 5.428.0
2015-Jul-03 10:55 330 10 27.0
2015-Jul-03 09:55 330 9 27.0
2015-Jul-03 08:55 300 8 27.0
2015-Jul-03 07:55 260 5 28.0
2015-Jul-03 06:55 22.0
2015-Jul-03 05:55 22.0
2015-Jul-03 04:55 070 2 18.0
2015-Jul-03 03:55 080 2 17.0
2015-Jul-03 02:55 080 4 20.0
2015-Jul-03 01:55 090 3 20.0
2015-Jul-03 00:55 080 2 20.0
2015-Jul-02 23:55 070 3 20.0
2015-Jul-02 22:55 130 3 25.0
2015-Jul-02 21:55 160 3 25.0
2015-Jul-02 20:55 080 2 26.0
2015-Jul-02 19:55 280 1 25.0
2015-Jul-02 18:55 310 3 26.0
2015-Jul-02 17:55 340 7 27.0
2015-Jul-02 16:55 310 8 5.428.0
2015-Jul-02 15:55 320 7 5.428.0
2015-Jul-02 14:55 320 8 5.428.0
2015-Jul-02 13:55 300 7 5.428.0
2015-Jul-02 12:55 260 8 5.428.0
2015-Jul-02 11:55 270 7 28.0
2015-Jul-02 10:55 280 7 5.428.0
2015-Jul-02 09:55 250 9 27.0
2015-Jul-02 08:55 240 8 28.0
2015-Jul-02 07:55 220 5 27.0
2015-Jul-02 06:55 200 3 26.0
2015-Jul-02 05:55 150 3 23.0
2015-Jul-02 04:55 070 2 18.0
2015-Jul-02 03:55 130 4 18.0
2015-Jul-02 02:55 140 5 19.0
2015-Jul-02 01:55 140 4 19.0